This is the latest recevied weather packets stored in our database for station/object IU5GBO-13. If no packets are shown the sender has not sent any weather packets the latest 10 day(s).
| Time | Temp. | Humidity | Pressure | Rain* | Wind** | Luminosity | Snow |
|---|---|---|---|---|---|---|---|
| 1777797976 | 21.67° C | 43% | 1022 hPa | - | - | - | - |
| 1777797376 | 22.22° C | 40% | 1021.9 hPa | - | - | - | - |
| 1777796776 | 21.67° C | 43% | 1021.9 hPa | - | - | - | - |
| 1777796176 | 22.22° C | 41% | 1021.7 hPa | - | - | - | - |
| 1777795576 | 21.11° C | 46% | 1021.8 hPa | - | - | - | - |
| 1777794976 | 20.56° C | 50% | 1021.8 hPa | - | - | - | - |
| 1777794377 | 19.44° C | 53% | 1021.8 hPa | - | - | - | - |
| 1777793776 | 20° C | 53% | 1021.9 hPa | - | - | - | - |
| 1777793176 | 19.44° C | 55% | 1021.9 hPa | - | - | - | - |
| 1777792576 | 18.33° C | 56% | 1022 hPa | - | - | - | - |
| 1777791976 | 17.22° C | 61% | 1022 hPa | - | - | - | - |
| 1777791376 | 16.67° C | 60% | 1022.2 hPa | - | - | - | - |
| 1777790776 | 17.22° C | 59% | 1022.1 hPa | - | - | - | - |
| 1777790176 | 16.67° C | 59% | 1022.2 hPa | - | - | - | - |
| 1777789576 | 15° C | 61% | 1022.3 hPa | - | - | - | - |
| 1777788976 | 14.44° C | 62% | 1022.3 hPa | - | - | - | - |
| 1777788376 | 13.33° C | 65% | 1022.3 hPa | - | - | - | - |
| 1777787776 | 11.67° C | 68% | 1022.4 hPa | - | - | - | - |
| 1777787176 | 11.11° C | 69% | 1022.4 hPa | - | - | - | - |
| 1777786576 | 10.56° C | 71% | 1022.4 hPa | - | - | - | - |
| 1777785976 | 10° C | 73% | 1022.4 hPa | - | - | - | - |
| 1777785376 | 9.44° C | 74% | 1022.3 hPa | - | - | - | - |
| 1777784776 | 9.44° C | 73% | 1022.3 hPa | - | - | - | - |
| 1777784176 | 9.44° C | 74% | 1022.2 hPa | - | - | - | - |
| 1777783578 | 8.89° C | 75% | 1022.2 hPa | - | - | - | - |
* Rain since midnight (hover to see other rain measurements)
** Current wind speed in m/s (hover to see current wind gust speed)